Tracking 17938 objects as of 22-February-2017
HD Live streaming from Space Station
objects crossing your sky now

COSMOS 970 DEB

Track COSMOS 970 DEB now!
10-day predictions


NORAD ID: 10563
Int'l Code: 1977-121E
Perigee: 868.8 km
Apogee: 1,029.9 km
Inclination: 65.8 °
Period: 103.9 minutes
Semi major axis: 7320 km
RCS: 0.0231 m2 (small)
Launch date: December 21, 1977
Source: Commonwealth of Independent States (former USSR) (CIS)
Launch site: TYURATAM MISSILE AND SPACE COMPLEX (TTMTR)

Note: This is SATELLITE DEBRIS
Your satellite tracking list
Your tracking list is empty





NASA's NSSDC Master Catalog

Two Line Element Set (TLE):
1 10563U 77121E   17052.11244052 +.00000158 +00000-0 +19888-3 0  9998
2 10563 065.8499 310.4844 0110032 225.0971 134.1128 13.86126068964993
Source of the keplerian elements: AFSPC